QPF
0.00 0.00 0.00 0.00 0.00 0.00 0.00 0.00 0.00 0.00 0.00 0.00 0.00 0.00 0.00 0.00 0.00 0.00 0.00 0.00 0.00 0.00 0.00 0.00 0.00 0.00 0.00 0.00 0.00 0.00 0.00 0.00 0.00 0.00 0.00 0.00 0.00 0.00 0.00 0.00 0.00 0.00 0.00
0.00 0.00 0.00 0.00 0.00 0.00 0.00 0.00 0.00 0.00 0.00 0.00 0.00 0.00 0.00 0.00 0.00 0.00 0.00 0.00 0.00 0.00 0.00 0.00 0.00 0.00 0.00 0.00 0.00 0.00 0.00 0.00 0.00 0.00 0.00 0.00 0.00 0.00 0.00 0.00 0.00 0.00 0.00
0.00 0.00 0.00 0.00 0.00 0.00 0.00 0.00 0.00 0.00 0.00 0.00 0.00 0.00 0.00 0.00 0.00 0.00 0.00 0.00 0.00 0.00 0.00 0.00 0.00 0.00 0.00 0.00 0.00 0.00 0.00 0.00 0.00 0.00 0.00 0.00 0.00 0.00 0.00 0.00 0.00 0.00 0.00
0.00 0.00 0.00 0.00 0.00 0.00 0.00 0.00 0.00 0.00 0.00 0.00 0.00 0.00 0.00 0.00 0.00 0.00 0.00 0.00 0.00 0.00 0.00 0.00 0.00 0.00 0.00 0.00 0.00 0.00 0.00 0.00 0.00 0.00 0.00 0.00 0.00 0.00 0.00 0.00 0.00 0.00 0.00
0.00 0.00 0.00 0.00 0.00 0.00 0.00 0.00 0.00 0.00 0.00 0.00 0.00 0.00 0.00 0.00 0.00 0.00 0.00 0.00 0.00 0.00 0.00 0.00 0.00 0.00 0.00 0.00 0.00 0.00 0.00 0.00 0.00 0.00 0.00 0.00 0.00 0.00 0.00 0.00 0.00 0.00 0.00
0.00 0.00 0.00 0.00 0.00 0.00 0.00 0.00 0.00 0.00 0.00 0.00 0.00 0.00 0.00 0.00 0.00 0.00 0.00 0.00 0.00 0.00 0.00 0.00 0.00 0.00 0.00 0.00 0.00 0.00 0.00 0.00 0.00 0.01 0.01 0.00 0.00 0.00 0.00 0.00 0.00 0.00 0.00
0.00 0.00 0.00 0.00 0.00 0.00 0.00 0.00 0.00 0.00 0.00 0.00 0.00 0.00 0.00 0.00 0.00 0.00 0.00 0.00 0.00 0.00 0.00 0.00 0.00 0.00 0.00 0.00 0.00 0.00 0.00 0.00 0.01 0.01 0.02 0.01 0.00 0.00 0.00 0.01 0.01 0.01 0.01
0.00 0.00 0.00 0.00 0.00 0.00 0.00 0.00 0.00 0.00 0.00 0.00 0.00 0.00 0.00 0.00 0.00 0.00 0.00 0.00 0.00 0.00 0.00 0.00 0.00 0.00 0.00 0.00 0.00 0.00 0.00 0.00 0.00 0.01 0.01 0.00 0.01 0.01 0.02 0.04 0.05 0.04 0.02
0.00 0.00 0.00 0.00 0.00 0.00 0.00 0.00 0.00 0.00 0.00 0.00 0.00 0.00 0.00 0.00 0.00 0.00 0.00 0.00 0.00 0.00 0.00 0.00 0.00 0.00 0.00 0.00 0.00 0.01 0.00 0.00 0.00 0.01 0.01 0.01 0.02 0.02 0.03 0.04 0.05 0.04 0.02
0.00 0.00 0.00 0.00 0.00 0.00 0.00 0.00 0.00 0.00 0.00 0.00 0.00 0.00 0.00 0.00 0.00 0.00 0.00 0.00 0.00 0.00 0.00 0.00 0.00 0.00 0.00 0.00 0.01 0.02 0.02 0.01 0.01 0.01 0.01 0.01 0.00 0.00 0.00 0.01 0.02 0.04 0.03
0.00 0.00 0.00 0.00 0.00 0.00 0.00 0.00 0.00 0.00 0.00 0.00 0.00 0.00 0.00 0.00 0.00 0.00 0.00 0.00 0.00 0.00 0.00 0.00 0.00 0.00 0.00 0.01 0.02 0.03 0.02 0.02 0.02 0.01 0.00 0.00 0.00 0.00 0.00 0.00 0.01 0.02 0.03
0.00 0.00 0.00 0.00 0.00 0.00 0.00 0.00 0.00 0.00 0.00 0.00 0.00 0.00 0.00 0.00 0.00 0.00 0.00 0.00 0.00 0.00 0.00 0.00 0.00 0.00 0.01 0.01 0.01 0.01 0.00 0.00 0.00 0.00 0.00 0.00 0.00 0.00 0.00 0.00 0.00 0.00 0.01
0.00 0.00 0.00 0.00 0.00 0.00 0.00 0.00 0.00 0.00 0.00 0.00 0.00 0.00 0.00 0.00 0.00 0.00 0.00 0.00 0.00 0.00 0.00 0.00 0.01 0.01 0.01 0.00 0.00 0.00 0.00 0.00 0.00 0.00 0.00 0.00 0.00 0.00 0.00 0.00 0.00 0.00 0.00
0.00 0.00 0.00 0.00 0.00 0.00 0.00 0.00 0.00 0.00 0.00 0.00 0.00 0.00 0.00 0.00 0.00 0.00 0.00 0.00 0.00 0.00 0.01 0.01 0.00 0.00 0.00 0.00 0.00 0.00 0.00 0.00 0.00 0.00 0.00 0.00 0.00 0.00 0.00 0.00 0.00 0.00 0.01
0.00 0.00 0.00 0.00 0.00 0.00 0.00 0.00 0.00 0.00 0.00 0.00 0.00 0.00 0.00 0.00 0.00 0.00 0.00 0.01 0.01 0.02 0.01 0.01 0.00 0.00 0.00 0.00 0.00 0.00 0.00 0.00 0.00 0.00 0.00 0.00 0.00 0.00 0.00 0.00 0.01 0.01 0.01
0.00 0.00 0.00 0.00 0.00 0.00 0.00 0.00 0.00 0.00 0.00 0.00 0.00 0.00 0.01 0.00 0.01 0.01 0.01 0.02 0.02 0.02 0.02 0.01 0.00 0.00 0.00 0.00 0.00 0.00 0.00 0.00 0.00 0.00 0.00 0.00 0.00 0.00 0.00 0.00 0.00 0.01 0.01
0.00 0.00 0.00 0.00 0.00 0.00 0.00 0.00 0.00 0.00 0.00 0.00 0.00 0.00 0.01 0.01 0.01 0.02 0.02 0.02 0.02 0.02 0.02 0.00 0.00 0.00 0.00 0.00 0.00 0.00 0.00 0.00 0.00 0.00 0.00 0.00 0.00 0.01 0.01 0.01 0.01 0.01 0.01
0.00 0.00 0.00 0.00 0.00 0.00 0.00 0.00 0.00 0.00 0.00 0.00 0.00 0.00 0.01 0.01 0.01 0.02 0.02 0.03 0.02 0.01 0.01 0.00 0.00 0.00 0.00 0.00 0.00 0.00 0.00 0.00 0.00 0.00 0.00 0.00 0.00 0.01 0.01 0.01 0.01 0.01 0.01
0.00 0.00 0.00 0.00 0.00 0.00 0.00 0.00 0.00 0.00 0.00 0.00 0.00 0.00 0.00 0.01 0.01 0.01 0.02 0.02 0.01 0.00 0.00 0.00 0.00 0.00 0.00 0.00 0.00 0.00 0.00 0.00 0.00 0.00 0.00 0.00 0.00 0.01 0.01 0.01 0.01 0.01 0.01
0.00 0.00 0.00 0.00 0.00 0.00 0.00 0.00 0.00 0.00 0.00 0.00 0.00 0.00 0.00 0.00 0.00 0.00 0.00 0.01 0.01 0.00 0.00 0.00 0.00 0.00 0.00 0.00 0.00 0.00 0.00 0.00 0.00 0.00 0.00 0.00 0.00 0.01 0.01 0.01 0.01 0.01 0.01
0.00 0.00 0.00 0.00 0.00 0.00 0.00 0.00 0.00 0.00 0.00 0.00 0.00 0.00 0.01 0.01 0.01 0.00 0.00 0.00 0.00 0.00 0.00 0.00 0.00 0.00 0.00 0.00 0.00 0.00 0.00 0.00 0.00 0.00 0.00 0.00 0.00 0.01 0.01 0.01 0.01 0.01 0.01
0.00 0.01 0.01 0.01 0.01 0.00 0.00 0.00 0.00 0.00 0.00 0.00 0.00 0.00 0.00 0.01 0.01 0.01 0.00 0.00 0.00 0.00 0.00 0.00 0.00 0.00 0.00 0.00 0.00 0.00 0.00 0.00 0.00 0.00 0.00 0.00 0.00 0.01 0.01 0.01 0.01 0.01 0.01
0.01 0.01 0.01 0.00 0.00 0.00 0.00 0.00 0.00 0.00 0.00 0.00 0.00 0.00 0.00 0.00 0.00 0.00 0.00 0.00 0.00 0.00 0.00 0.00 0.00 0.00 0.00 0.00 0.00 0.00 0.00 0.00 0.00 0.00 0.01 0.01 0.01 0.01 0.01 0.01 0.01 0.01 0.01
0.01 0.01 0.00 0.00 0.00 0.00 0.00 0.00 0.00 0.00 0.00 0.00 0.00 0.00 0.00 0.00 0.00 0.00 0.00 0.01 0.00 0.00 0.00 0.00 0.00 0.00 0.00 0.00 0.00 0.00 0.00 0.00 0.00 0.00 0.01 0.01 0.01 0.01 0.01 0.01 0.01 0.01 0.01
0.00 0.00 0.00 0.00 0.00 0.00 0.00 0.00 0.00 0.00 0.00 0.00 0.00 0.00 0.00 0.00 0.01 0.01 0.01 0.01 0.01 0.00 0.00 0.00 0.00 0.00 0.00 0.00 0.00 0.00 0.00 0.00 0.00 0.01 0.01 0.01 0.01 0.01 0.01 0.01 0.00 0.00 0.00
0.00 0.00 0.00 0.00 0.00 0.00 0.00 0.00 0.00 0.00 0.00 0.00 0.00 0.00 0.00 0.00 0.00 0.01 0.01 0.01 0.00 0.00 0.00 0.00 0.00 0.00 0.00 0.00 0.00 0.00 0.00 0.00 0.00 0.01 0.02 0.02 0.01 0.01 0.01 0.00 0.00 0.00 0.00
MSLP
1025.00 1025.63 1026.31 1027.00 1027.67 1028.31 1028.92 1029.49 1030.02 1030.52 1030.99 1031.43 1031.84 1032.19 1032.49 1032.72 1032.90 1033.03 1033.14 1033.25 1033.38 1033.54 1033.72 1033.91 1034.08 1034.21 1034.25 1034.17 1033.97 1033.65 1033.21 1032.69 1032.11 1031.51 1030.90 1030.31 1029.73 1029.15 1028.57 1027.97 1027.33 1026.67 1025.99
1024.96 1025.62 1026.31 1026.98 1027.63 1028.25 1028.83 1029.38 1029.91 1030.41 1030.89 1031.33 1031.74 1032.10 1032.40 1032.64 1032.83 1032.97 1033.08 1033.19 1033.31 1033.46 1033.63 1033.81 1033.97 1034.09 1034.13 1034.07 1033.90 1033.62 1033.24 1032.77 1032.25 1031.68 1031.09 1030.49 1029.87 1029.24 1028.58 1027.90 1027.19 1026.46 1025.72
1024.78 1025.50 1026.20 1026.88 1027.52 1028.12 1028.68 1029.21 1029.73 1030.22 1030.70 1031.15 1031.56 1031.93 1032.24 1032.49 1032.68 1032.82 1032.94 1033.06 1033.18 1033.31 1033.47 1033.62 1033.77 1033.87 1033.91 1033.86 1033.72 1033.47 1033.13 1032.72 1032.23 1031.69 1031.12 1030.50 1029.86 1029.17 1028.46 1027.71 1026.94 1026.16 1025.38
1024.45 1025.22 1025.96 1026.65 1027.29 1027.88 1028.44 1028.96 1029.46 1029.95 1030.43 1030.88 1031.30 1031.67 1031.99 1032.25 1032.45 1032.61 1032.73 1032.85 1032.97 1033.09 1033.22 1033.36 1033.47 1033.56 1033.59 1033.54 1033.41 1033.19 1032.89 1032.50 1032.05 1031.53 1030.95 1030.33 1029.65 1028.93 1028.17 1027.38 1026.57 1025.76 1024.97
1023.96 1024.79 1025.57 1026.29 1026.94 1027.53 1028.09 1028.61 1029.11 1029.61 1030.08 1030.53 1030.96 1031.33 1031.66 1031.93 1032.15 1032.32 1032.45 1032.57 1032.68 1032.79 1032.90 1033.01 1033.10 1033.17 1033.18 1033.13 1033.00 1032.79 1032.50 1032.14 1031.69 1031.18 1030.61 1029.97 1029.27 1028.52 1027.74 1026.92 1026.10 1025.28 1024.49
1023.35 1024.24 1025.05 1025.79 1026.46 1027.08 1027.65 1028.19 1028.70 1029.20 1029.68 1030.14 1030.57 1030.95 1031.29 1031.57 1031.79 1031.97 1032.11 1032.23 1032.33 1032.43 1032.52 1032.61 1032.67 1032.70 1032.70 1032.63 1032.50 1032.29 1032.01 1031.65 1031.21 1030.70 1030.12 1029.47 1028.77 1028.01 1027.21 1026.39 1025.56 1024.75 1023.97
1022.70 1023.61 1024.45 1025.22 1025.92 1026.56 1027.15 1027.71 1028.25 1028.77 1029.26 1029.73 1030.16 1030.55 1030.89 1031.17 1031.40 1031.58 1031.72 1031.84 1031.93 1032.02 1032.09 1032.15 1032.19 1032.20 1032.17 1032.09 1031.94 1031.73 1031.45 1031.09 1030.66 1030.15 1029.57 1028.92 1028.21 1027.45 1026.66 1025.84 1025.03 1024.22 1023.45
1022.07 1022.98 1023.83 1024.61 1025.34 1026.01 1026.64 1027.24 1027.80 1028.34 1028.85 1029.32 1029.75 1030.14 1030.47 1030.74 1030.97 1031.15 1031.29 1031.40 1031.49 1031.56 1031.62 1031.66 1031.68 1031.67 1031.62 1031.52 1031.37 1031.16 1030.88 1030.53 1030.10 1029.60 1029.03 1028.39 1027.69 1026.94 1026.16 1025.35 1024.55 1023.76 1022.99
1021.50 1022.40 1023.24 1024.04 1024.78 1025.48 1026.15 1026.78 1027.37 1027.93 1028.45 1028.92 1029.34 1029.71 1030.03 1030.29 1030.50 1030.67 1030.81 1030.91 1031.00 1031.06 1031.11 1031.14 1031.15 1031.12 1031.06 1030.96 1030.81 1030.60 1030.33 1029.99 1029.58 1029.10 1028.55 1027.93 1027.25 1026.52 1025.76 1024.97 1024.17 1023.38 1022.61
1021.03 1021.89 1022.72 1023.51 1024.27 1025.00 1025.69 1026.34 1026.96 1027.53 1028.04 1028.50 1028.91 1029.25 1029.54 1029.78 1029.97 1030.13 1030.26 1030.36 1030.45 1030.52 1030.57 1030.60 1030.60 1030.58 1030.52 1030.43 1030.28 1030.09 1029.84 1029.52 1029.14 1028.69 1028.17 1027.58 1026.93 1026.23 1025.48 1024.70 1023.91 1023.11 1022.32
1020.64 1021.45 1022.25 1023.03 1023.80 1024.54 1025.25 1025.92 1026.54 1027.11 1027.61 1028.04 1028.41 1028.71 1028.97 1029.17 1029.35 1029.49 1029.62 1029.73 1029.82 1029.91 1029.97 1030.02 1030.04 1030.04 1030.00 1029.92 1029.80 1029.63 1029.41 1029.13 1028.79 1028.38 1027.90 1027.35 1026.73 1026.05 1025.31 1024.54 1023.74 1022.93 1022.11
1020.30 1021.06 1021.83 1022.60 1023.36 1024.11 1024.82 1025.49 1026.10 1026.65 1027.11 1027.50 1027.82 1028.08 1028.29 1028.45 1028.60 1028.74 1028.87 1028.99 1029.11 1029.22 1029.33 1029.41 1029.46 1029.49 1029.49 1029.44 1029.36 1029.23 1029.05 1028.81 1028.52 1028.15 1027.71 1027.19 1026.60 1025.94 1025.22 1024.45 1023.63 1022.80 1021.94
1019.97 1020.69 1021.43 1022.18 1022.93 1023.68 1024.38 1025.04 1025.62 1026.13 1026.54 1026.88 1027.13 1027.33 1027.49 1027.62 1027.75 1027.88 1028.02 1028.17 1028.33 1028.48 1028.63 1028.77 1028.87 1028.95 1028.99 1029.00 1028.96 1028.87 1028.74 1028.55 1028.29 1027.97 1027.56 1027.07 1026.50 1025.86 1025.14 1024.36 1023.53 1022.66 1021.77
1019.65 1020.33 1021.04 1021.78 1022.52 1023.25 1023.93 1024.56 1025.11 1025.56 1025.91 1026.18 1026.37 1026.51 1026.62 1026.72 1026.83 1026.96 1027.11 1027.30 1027.50 1027.72 1027.93 1028.12 1028.29 1028.43 1028.52 1028.58 1028.59 1028.55 1028.46 1028.31 1028.09 1027.80 1027.42 1026.96 1026.40 1025.76 1025.04 1024.24 1023.39 1022.49 1021.56
1019.36 1020.01 1020.69 1021.41 1022.14 1022.85 1023.51 1024.10 1024.59 1024.99 1025.28 1025.48 1025.61 1025.69 1025.75 1025.82 1025.91 1026.05 1026.22 1026.45 1026.70 1026.97 1027.24 1027.50 1027.74 1027.93 1028.09 1028.20 1028.25 1028.26 1028.21 1028.09 1027.90 1027.63 1027.26 1026.81 1026.26 1025.61 1024.88 1024.06 1023.19 1022.26 1021.30
1019.14 1019.77 1020.44 1021.14 1021.84 1022.53 1023.15 1023.70 1024.15 1024.49 1024.73 1024.87 1024.94 1024.97 1024.99 1025.03 1025.12 1025.25 1025.45 1025.70 1026.00 1026.31 1026.64 1026.95 1027.24 1027.49 1027.70 1027.85 1027.95 1027.99 1027.96 1027.87 1027.69 1027.43 1027.08 1026.62 1026.06 1025.40 1024.65 1023.82 1022.92 1021.97 1020.97
1019.08 1019.68 1020.33 1021.01 1021.69 1022.34 1022.94 1023.45 1023.85 1024.15 1024.33 1024.43 1024.45 1024.45 1024.44 1024.46 1024.53 1024.66 1024.86 1025.13 1025.44 1025.79 1026.15 1026.50 1026.82 1027.11 1027.35 1027.53 1027.66 1027.72 1027.71 1027.63 1027.46 1027.21 1026.85 1026.39 1025.82 1025.15 1024.38 1023.53 1022.61 1021.63 1020.62
1019.23 1019.80 1020.42 1021.07 1021.72 1022.34 1022.90 1023.38 1023.75 1024.01 1024.16 1024.22 1024.22 1024.19 1024.16 1024.15 1024.21 1024.32 1024.51 1024.77 1025.07 1025.42 1025.78 1026.13 1026.47 1026.77 1027.02 1027.22 1027.36 1027.43 1027.44 1027.36 1027.20 1026.94 1026.58 1026.11 1025.53 1024.85 1024.07 1023.21 1022.28 1021.29 1020.26
1019.61 1020.15 1020.73 1021.34 1021.95 1022.53 1023.05 1023.50 1023.84 1024.08 1024.21 1024.26 1024.25 1024.20 1024.15 1024.12 1024.15 1024.23 1024.38 1024.60 1024.87 1025.18 1025.51 1025.84 1026.15 1026.44 1026.69 1026.89 1027.03 1027.11 1027.11 1027.04 1026.88 1026.62 1026.26 1025.79 1025.21 1024.53 1023.75 1022.89 1021.95 1020.97 1019.94
1020.20 1020.69 1021.22 1021.77 1022.34 1022.88 1023.37 1023.78 1024.10 1024.33 1024.46 1024.50 1024.49 1024.43 1024.36 1024.31 1024.30 1024.33 1024.43 1024.58 1024.78 1025.02 1025.29 1025.56 1025.83 1026.08 1026.31 1026.49 1026.62 1026.70 1026.71 1026.64 1026.49 1026.23 1025.88 1025.41 1024.84 1024.17 1023.40 1022.55 1021.64 1020.68 1019.67
1020.93 1021.36 1021.82 1022.32 1022.82 1023.31 1023.76 1024.15 1024.45 1024.67 1024.80 1024.85 1024.83 1024.77 1024.69 1024.61 1024.55 1024.53 1024.55 1024.61 1024.73 1024.88 1025.06 1025.26 1025.46 1025.66 1025.85 1026.00 1026.12 1026.19 1026.20 1026.13 1025.99 1025.75 1025.41 1024.96 1024.41 1023.76 1023.02 1022.21 1021.34 1020.42 1019.46
1021.70 1022.05 1022.45 1022.87 1023.31 1023.74 1024.15 1024.50 1024.79 1025.00 1025.13 1025.19 1025.17 1025.11 1025.01 1024.90 1024.79 1024.70 1024.64 1024.61 1024.63 1024.68 1024.76 1024.88 1025.01 1025.14 1025.28 1025.41 1025.51 1025.57 1025.57 1025.51 1025.38 1025.15 1024.83 1024.41 1023.89 1023.28 1022.59 1021.83 1021.02 1020.17 1019.28
1022.40 1022.69 1023.01 1023.35 1023.72 1024.09 1024.44 1024.75 1025.01 1025.21 1025.34 1025.40 1025.39 1025.32 1025.20 1025.06 1024.91 1024.75 1024.62 1024.50 1024.42 1024.38 1024.37 1024.40 1024.46 1024.53 1024.62 1024.71 1024.79 1024.83 1024.83 1024.78 1024.65 1024.44 1024.14 1023.75 1023.27 1022.71 1022.09 1021.40 1020.66 1019.90 1019.10
1022.96 1023.17 1023.42 1023.69 1023.98 1024.28 1024.57 1024.84 1025.07 1025.25 1025.36 1025.41 1025.40 1025.33 1025.20 1025.03 1024.84 1024.64 1024.44 1024.26 1024.10 1023.98 1023.89 1023.85 1023.84 1023.86 1023.90 1023.96 1024.00 1024.02 1024.01 1023.94 1023.81 1023.61 1023.33 1022.97 1022.54 1022.04 1021.48 1020.88 1020.25 1019.59 1018.91
1023.33 1023.49 1023.67 1023.86 1024.08 1024.30 1024.53 1024.74 1024.93 1025.08 1025.18 1025.22 1025.20 1025.11 1024.98 1024.80 1024.58 1024.35 1024.11 1023.88 1023.68 1023.50 1023.36 1023.26 1023.20 1023.17 1023.17 1023.18 1023.18 1023.17 1023.13 1023.04 1022.90 1022.69 1022.42 1022.09 1021.69 1021.25 1020.78 1020.27 1019.75 1019.21 1018.67
1023.53 1023.64 1023.75 1023.88 1024.03 1024.18 1024.34 1024.50 1024.64 1024.75 1024.82 1024.84 1024.80 1024.72 1024.57 1024.39 1024.17 1023.92 1023.67 1023.42 1023.19 1022.98 1022.81 1022.67 1022.57 1022.50 1022.45 1022.41 1022.36 1022.30 1022.21 1022.08 1021.91 1021.69 1021.41 1021.10 1020.74 1020.36 1019.97 1019.56 1019.15 1018.75 1018.35
Thickness
5529 5521 5513 5504 5496 5488 5478 5469 5459 5450 5440 5431 5421 5411 5401 5391 5380 5370 5360 5350 5340 5331 5322 5314 5305 5297 5290 5282 5276 5269 5262 5255 5256 5276 5279 5273 5271 5272 5276 5279 5284 5290 5297
5515 5507 5498 5489 5481 5472 5463 5453 5444 5434 5424 5414 5404 5393 5383 5372 5362 5352 5342 5332 5321 5311 5302 5293 5285 5277 5269 5261 5254 5248 5242 5235 5231 5240 5255 5250 5247 5245 5248 5253 5259 5264 5270
5502 5493 5483 5475 5466 5457 5448 5438 5428 5418 5407 5397 5386 5375 5365 5354 5344 5334 5324 5314 5303 5294 5284 5274 5266 5257 5250 5242 5236 5230 5224 5220 5215 5215 5227 5228 5226 5223 5225 5231 5236 5242 5246
5489 5480 5471 5462 5453 5443 5433 5423 5412 5402 5391 5380 5369 5359 5348 5337 5327 5317 5307 5298 5288 5277 5267 5258 5249 5241 5233 5227 5221 5215 5210 5205 5201 5199 5204 5208 5206 5204 5203 5208 5218 5223 5227
5477 5468 5459 5449 5439 5429 5418 5407 5396 5386 5375 5364 5353 5342 5331 5320 5310 5301 5292 5282 5272 5262 5253 5244 5236 5228 5220 5214 5208 5203 5197 5191 5186 5183 5186 5189 5189 5186 5185 5187 5194 5205 5212
5466 5457 5447 5436 5425 5414 5403 5391 5380 5369 5358 5347 5337 5326 5315 5305 5295 5286 5277 5267 5258 5248 5240 5232 5224 5216 5209 5202 5197 5191 5185 5178 5172 5169 5171 5171 5172 5168 5168 5170 5175 5185 5197
5454 5444 5433 5423 5411 5400 5388 5376 5365 5353 5342 5331 5321 5310 5300 5291 5281 5272 5262 5254 5244 5235 5227 5219 5213 5205 5197 5191 5185 5180 5173 5164 5159 5155 5156 5156 5154 5153 5153 5157 5161 5168 5177
5442 5431 5420 5409 5397 5385 5373 5362 5350 5338 5327 5317 5307 5297 5287 5278 5267 5259 5249 5241 5232 5224 5215 5208 5201 5194 5185 5178 5174 5170 5163 5156 5149 5145 5143 5142 5141 5140 5140 5144 5150 5158 5165
5430 5419 5407 5396 5384 5371 5359 5348 5336 5324 5314 5304 5294 5285 5275 5265 5254 5246 5237 5228 5221 5214 5206 5198 5190 5183 5175 5168 5163 5158 5153 5147 5142 5137 5133 5131 5129 5129 5127 5131 5136 5140 5151
5418 5407 5395 5383 5371 5359 5348 5335 5323 5312 5302 5291 5282 5273 5263 5253 5242 5233 5225 5217 5210 5204 5197 5189 5181 5173 5165 5158 5151 5145 5140 5137 5132 5129 5124 5121 5118 5117 5117 5117 5120 5125 5133
5403 5391 5380 5369 5357 5346 5334 5322 5310 5298 5287 5278 5269 5261 5251 5242 5231 5223 5215 5207 5200 5193 5187 5180 5172 5164 5156 5149 5141 5133 5127 5124 5119 5113 5110 5109 5108 5108 5109 5109 5110 5112 5118
5385 5374 5364 5353 5342 5331 5319 5307 5296 5284 5273 5263 5253 5245 5238 5230 5221 5212 5205 5199 5192 5184 5178 5171 5163 5154 5147 5139 5131 5123 5117 5111 5104 5099 5097 5097 5098 5100 5101 5102 5103 5104 5107
5366 5356 5346 5336 5326 5315 5304 5293 5280 5268 5259 5250 5240 5233 5228 5220 5212 5205 5197 5191 5184 5177 5171 5163 5155 5147 5138 5129 5119 5112 5106 5098 5092 5089 5087 5088 5089 5091 5092 5095 5097 5099 5103
5349 5338 5327 5317 5307 5297 5288 5278 5266 5256 5246 5238 5230 5224 5217 5210 5203 5195 5187 5180 5174 5167 5160 5154 5146 5137 5128 5119 5110 5102 5094 5089 5085 5082 5081 5082 5082 5083 5085 5087 5090 5094 5098
5330 5319 5309 5299 5290 5280 5271 5263 5254 5247 5236 5227 5220 5212 5203 5198 5193 5185 5176 5169 5162 5155 5148 5141 5132 5122 5113 5105 5098 5092 5086 5081 5078 5076 5074 5074 5075 5076 5079 5080 5081 5084 5087
5311 5301 5292 5283 5273 5264 5254 5244 5239 5232 5224 5217 5209 5200 5193 5187 5180 5174 5167 5161 5153 5146 5137 5129 5119 5110 5102 5094 5088 5083 5078 5074 5072 5070 5067 5066 5067 5069 5072 5074 5075 5077 5080
5295 5286 5276 5268 5258 5248 5239 5230 5221 5216 5211 5204 5196 5189 5182 5174 5167 5161 5154 5148 5141 5134 5125 5116 5106 5097 5090 5083 5078 5074 5071 5068 5065 5063 5061 5061 5061 5062 5063 5066 5069 5071 5074
5275 5268 5259 5251 5242 5232 5223 5215 5207 5199 5191 5184 5178 5172 5166 5159 5153 5146 5139 5132 5125 5118 5108 5099 5091 5083 5077 5071 5067 5064 5062 5060 5057 5056 5055 5054 5054 5055 5057 5059 5062 5064 5067
5254 5246 5239 5230 5222 5214 5206 5198 5189 5181 5173 5166 5158 5152 5146 5140 5135 5128 5121 5113 5106 5098 5090 5082 5075 5068 5063 5059 5056 5054 5052 5051 5050 5049 5049 5049 5049 5049 5050 5053 5055 5058 5061
5232 5226 5217 5210 5202 5194 5186 5178 5170 5162 5155 5148 5141 5134 5127 5119 5111 5105 5098 5091 5084 5078 5071 5065 5060 5055 5051 5048 5046 5045 5044 5044 5044 5044 5044 5044 5043 5043 5044 5046 5049 5052 5056
5211 5203 5197 5189 5182 5174 5166 5159 5152 5144 5137 5130 5123 5116 5112 5104 5096 5087 5079 5071 5064 5058 5052 5047 5043 5041 5039 5037 5037 5036 5037 5038 5038 5038 5038 5038 5038 5037 5038 5039 5043 5047 5050
5190 5181 5175 5168 5161 5154 5147 5139 5132 5125 5118 5111 5104 5097 5093 5085 5077 5069 5062 5055 5047 5040 5034 5030 5028 5027 5027 5028 5029 5029 5031 5032 5033 5033 5033 5033 5032 5032 5032 5034 5038 5041 5044
5169 5162 5154 5148 5141 5134 5126 5119 5112 5106 5099 5092 5086 5079 5071 5064 5056 5049 5042 5036 5029 5024 5019 5016 5015 5016 5018 5020 5022 5024 5026 5028 5030 5029 5028 5028 5027 5027 5027 5030 5033 5036 5038
5148 5142 5135 5128 5122 5115 5108 5101 5095 5088 5082 5075 5068 5062 5055 5048 5040 5033 5027 5021 5015 5010 5006 5004 5004 5007 5010 5014 5017 5021 5024 5026 5026 5026 5026 5025 5024 5025 5025 5028 5030 5031 5032
5127 5122 5116 5110 5103 5097 5090 5084 5078 5072 5065 5060 5054 5047 5041 5034 5027 5021 5014 5009 5003 4999 4997 4996 4998 5001 5006 5010 5015 5018 5021 5023 5025 5025 5024 5023 5024 5025 5026 5027 5028 5028 5027
5108 5102 5097 5091 5085 5079 5073 5067 5061 5056 5051 5046 5040 5034 5028 5022 5017 5011 5005 4999 4995 4992 4991 4992 4995 4999 5004 5009 5013 5017 5020 5023 5025 5026 5025 5024 5025 5027 5028 5028 5026 5025 5023